Regional Weather Roundup
Issued by NWS Little Rock, AR

Home | Current Version | Previous Version | Text Only | Print | Product List | Glossary Off
Versions: 1 2 3 4 5 6 7 8 9 10 11 12 13 14 15 16 17 18 19 20 21 22 23 24 25 26 27 28 29 30 31 32

000
ASUS44 KLZK 200012
RWRLZK

WEATHER ROUNDUP FOR ARKANSAS
NATIONAL WEATHER SERVICE LITTLE ROCK AR
700 PM CDT TUE SEP 19 2017

NOTE: "FAIR" INDICATES FEW OR NO CLOUDS BELOW 12,000 FEET WITH NO
SIGNIFICANT WEATHER AND/OR OBSTRUCTIONS TO VISIBILITY.

ARZ001-003-010-029-200100-
NORTHWEST ARKANSAS

CITY           SKY/WX    TMP DP  RH WIND       PRES   REMARKS
FAYETTEVILLE   CLEAR     82  70  66 S8        29.83S HX  86
6HR MIN TEMP:  82; 6HR MAX TEMP:  87;

FORT SMITH     CLEAR     88  69  53 S7        29.79F HX  92
6HR MIN TEMP:  87; 6HR MAX TEMP:  93;

HARRISON       CLEAR     82  66  58 S8        29.86F
6HR MIN TEMP:  82; 6HR MAX TEMP:  90;

BENTONVILLE    CLEAR     83  69  62 S6        29.85S HX  86
6HR MIN TEMP:  83; 6HR MAX TEMP:  88;

ROGERS         PTCLDY    82  70  66 SE6       29.84S HX  86
6HR MIN TEMP:  82; 6HR MAX TEMP:  89;

SILOAM SPGS    PTCLDY    84  68  58 S12       29.83S HX  87
6HR MIN TEMP:  83; 6HR MAX TEMP:  88;

HIGHFILL       PTCLDY    83  70  64 S7        29.83S HX  87
6HR MIN TEMP:  83; 6HR MAX TEMP:  88;

SPRINGDALE     PTCLDY    84  68  58 S12       29.85S HX  87
$$

ARZ004-005-016-200100-
NORTH CENTRAL ARKANSAS

CITY           SKY/WX    TMP DP  RH WIND       PRES   REMARKS
BATESVILLE     CLEAR    N/A N/A N/A SE5       29.86F
FLIPPIN        CLEAR     85  67  54 S3        29.84F HX  87
6HR MIN TEMP:  85; 6HR MAX TEMP:  93;

MTN HOME       CLEAR     83  66  56 S3        29.84F HX  85
6HR MIN TEMP:  83; 6HR MAX TEMP:  91;

$$

ARZ040-041-200100-
WEST CENTRAL ARKANSAS

CITY           SKY/WX    TMP DP  RH WIND       PRES   REMARKS
MENA           CLEAR     86  73  66 CALM      29.86S HX  93
MOUNT IDA      CLEAR     84  68  58 VRB5      29.84F HX  87
6HR MIN TEMP:  84; 6HR MAX TEMP:  92;

$$

ARZ009-017-025-026-028-200100-
NORTHEAST ARKANSAS

CITY           SKY/WX    TMP DP  RH WIND       PRES   REMARKS
JONESBORO      CLEAR     84  72  67 S6        29.86S HX  89
6HR MIN TEMP:  84; 6HR MAX TEMP:  91;

NEWPORT        CLEAR     82  72  71 S7        29.86S HX  87
6HR MIN TEMP:  82; 6HR MAX TEMP:  91;

BLYTHEVILLE    PTCLDY    85  73  67 S6        29.88R HX  91
6HR MIN TEMP:  84; 6HR MAX TEMP:  90;

$$

ARZ022-023-033-042-044-200100-
CENTRAL ARKANSAS

CITY           SKY/WX    TMP DP  RH WIND       PRES   REMARKS
LITTLE ROCK    PTCLDY    83  74  74 S7        29.85F HX  89
6HR MIN TEMP:  83; 6HR MAX TEMP:  90;

N LITTLE ROCK    N/A     86  73  65 S6        29.85F HX  92
6HR MIN TEMP:  86; 6HR MAX TEMP:  91;

JACKSONVILLE   CLEAR     87  72  61 S5        29.84F HX  94
6HR MIN TEMP:  87; 6HR MAX TEMP:  93;

CONWAY           N/A    N/A N/A N/A MISG        N/A
SEARCY         CLEAR     84  74  71 S3        29.86F HX  91
6HR MIN TEMP:  84; 6HR MAX TEMP:  92;

HOT SPRINGS    CLEAR     86  73  65 SW7       29.86S HX  93
6HR MIN TEMP:  86; 6HR MAX TEMP:  94;

RUSSELLVILLE   CLEAR     87  69  54 SE3       29.81F HX  91
6HR MIN TEMP:  86; 6HR MAX TEMP:  94;

CLINTON        FAIR      86  70  58 SE5       29.84F HX  90
$$

ARZ036-200100-
EAST ARKANSAS

CITY           SKY/WX    TMP DP  RH WIND       PRES   REMARKS
WEST MEMPHIS   CLEAR     81  75  82 S3        29.86S HX  87
6HR MIN TEMP:  81; 6HR MAX TEMP:  91;

$$

ARZ050-053-066-070-073-200100-
SOUTHWEST ARKANSAS

CITY           SKY/WX    TMP DP  RH WIND       PRES   REMARKS
ARKADELPHIA    FAIR      82  74  76 S5        29.86S HX  88
6HR MIN TEMP:  82; 6HR MAX TEMP:  91;

CAMDEN         MOCLDY    84  72  65 CALM      29.86F HX  89
TEXARKANA      MOCLDY    83  73  72 SE5       29.84F HX  89
6HR MIN TEMP:  80; 6HR MAX TEMP:  88;

EL DORADO      PTCLDY    83  75  77 E5        29.88S HX  90
6HR MIN TEMP:  83; 6HR MAX TEMP:  88;

$$

ARZ056-057-069-200100-
SOUTHEAST ARKANSAS

CITY           SKY/WX    TMP DP  RH WIND       PRES   REMARKS
PINE BLUFF     CLEAR     84  73  69 S8        29.87S HX  90
6HR MIN TEMP:  84; 6HR MAX TEMP:  90;

STUTTGART      CLEAR     86  73  65 S7        29.86F HX  93
6HR MIN TEMP:  86; 6HR MAX TEMP:  92;

MONTICELLO     CLEAR     84  73  69 S3        29.88S HX  90
6HR MIN TEMP:  84; 6HR MAX TEMP:  91;


$$






USA.gov is the U.S. government's official web portal to all federal, state and local government web resources and services.